Time,TemperatureF,DewpointF,PressureIn,WindDirection,WindDirectionDegrees,WindSpeedMPH,WindSpeedGustMPH,Humidity,HourlyPrecipIn,Conditions,Clouds,dailyrainin,SoftwareType,DateUTC
2013-04-12 00:02:00,30.9,30.7,29.89,ESE,112,5.8,-999.0,99,-99.99,,,0.00,Acu-Link.com,2013-04-12 04:02:00,
2013-04-12 00:18:00,30.9,30.7,29.88,ESE,112,4.3,-999.0,99,-99.99,,,0.00,Acu-Link.com,2013-04-12 04:18:00,
2013-04-12 00:33:00,31.1,30.9,29.87,ESE,112,4.7,-999.0,99,-99.99,,,0.00,Acu-Link.com,2013-04-12 04:33:00,
2013-04-12 00:48:00,31.1,30.9,29.86,East,90,5.8,-999.0,99,-99.99,,,0.00,Acu-Link.com,2013-04-12 04:48:00,
2013-04-12 01:03:00,31.3,31.0,29.85,ESE,112,6.3,-999.0,99,-99.99,,,0.00,Acu-Link.com,2013-04-12 05:03:00,
2013-04-12 01:18:00,31.3,31.0,29.84,ESE,112,6.3,-999.0,99,-99.99,,,0.00,Acu-Link.com,2013-04-12 05:18:00,
2013-04-12 01:34:00,31.3,31.0,29.83,ESE,112,3.1,-999.0,99,-99.99,,,0.00,Acu-Link.com,2013-04-12 05:34:00,
2013-04-12 01:49:00,31.5,31.2,29.80,ESE,112,4.3,-999.0,99,-99.99,,,0.00,Acu-Link.com,2013-04-12 05:49:00,
2013-04-12 02:04:00,31.6,31.4,29.80,ESE,112,3.8,-999.0,99,-99.99,,,0.00,Acu-Link.com,2013-04-12 06:04:00,
2013-04-12 02:19:00,31.6,31.4,29.78,ESE,112,6.3,-999.0,99,-99.99,,,0.00,Acu-Link.com,2013-04-12 06:19:00,
2013-04-12 02:34:00,31.8,31.6,29.77,ESE,112,7.8,-999.0,99,-99.99,,,0.00,Acu-Link.com,2013-04-12 06:34:00,
2013-04-12 02:50:00,32.0,31.8,29.74,ESE,112,8.3,-999.0,99,-99.99,,,0.00,Acu-Link.com,2013-04-12 06:50:00,
2013-04-12 03:05:00,32.0,31.8,29.72,ESE,112,8.3,-999.0,99,-99.99,,,0.00,Acu-Link.com,2013-04-12 07:05:00,
2013-04-12 03:20:00,32.0,31.8,29.71,ESE,112,9.8,-999.0,99,-99.99,,,0.00,Acu-Link.com,2013-04-12 07:20:00,
2013-04-12 03:35:00,32.0,31.8,29.71,SE,135,5.8,-999.0,99,-99.99,,,0.00,Acu-Link.com,2013-04-12 07:35:00,
2013-04-12 03:50:00,32.0,31.8,29.69,ESE,112,6.3,-999.0,99,-99.99,,,0.00,Acu-Link.com,2013-04-12 07:50:00,
2013-04-12 04:08:00,32.0,31.8,29.70,ESE,112,10.3,-999.0,99,-99.99,,,0.00,Acu-Link.com,2013-04-12 08:08:00,
2013-04-12 04:23:00,32.0,31.8,29.70,SE,135,4.7,-999.0,99,-99.99,,,0.00,Acu-Link.com,2013-04-12 08:23:00,
2013-04-12 04:39:00,32.2,31.9,29.68,ESE,112,6.3,-999.0,99,-99.99,,,0.00,Acu-Link.com,2013-04-12 08:39:00,
2013-04-12 04:54:00,32.2,31.9,29.67,ESE,112,5.1,-999.0,99,-99.99,,,0.00,Acu-Link.com,2013-04-12 08:54:00,
2013-04-12 05:09:00,32.4,32.1,29.68,ESE,112,4.7,-999.0,99,-99.99,,,0.00,Acu-Link.com,2013-04-12 09:09:00,
2013-04-12 05:24:00,32.4,32.1,29.68,ESE,112,3.1,-999.0,99,-99.99,,,0.00,Acu-Link.com,2013-04-12 09:24:00,
2013-04-12 05:39:00,32.4,32.1,29.67,SE,135,4.7,-999.0,99,-99.99,,,0.00,Acu-Link.com,2013-04-12 09:39:00,
2013-04-12 05:54:00,32.4,32.1,29.65,East,90,4.7,-999.0,99,-99.99,,,0.00,Acu-Link.com,2013-04-12 09:54:00,
2013-04-12 06:10:00,32.4,32.1,29.64,ESE,112,5.1,-999.0,99,-99.99,,,0.01,Acu-Link.com,2013-04-12 10:10:00,
2013-04-12 06:25:00,32.4,32.1,29.63,SE,135,5.1,-999.0,99,-99.99,,,0.02,Acu-Link.com,2013-04-12 10:25:00,
2013-04-12 06:40:00,32.5,32.3,29.62,ESE,112,4.3,-999.0,99,-99.99,,,0.02,Acu-Link.com,2013-04-12 10:40:00,
2013-04-12 06:55:00,32.5,32.3,29.61,ESE,112,4.3,-999.0,99,-99.99,,,0.02,Acu-Link.com,2013-04-12 10:55:00,
2013-04-12 07:10:00,32.7,32.5,29.60,ESE,112,6.7,-999.0,99,-99.99,,,0.04,Acu-Link.com,2013-04-12 11:10:00,
2013-04-12 07:26:00,32.9,32.7,29.59,ESE,112,4.3,-999.0,99,-99.99,,,0.05,Acu-Link.com,2013-04-12 11:26:00,
2013-04-12 07:56:00,33.3,33.0,29.57,ESE,112,4.7,-999.0,99,-99.99,,,0.06,Acu-Link.com,2013-04-12 11:56:00,
2013-04-12 08:11:00,33.4,33.2,29.56,ESE,112,4.3,-999.0,99,-99.99,,,0.08,Acu-Link.com,2013-04-12 12:11:00,
2013-04-12 08:26:00,33.8,33.5,29.55,ESE,112,3.8,-999.0,99,-99.99,,,0.08,Acu-Link.com,2013-04-12 12:26:00,
2013-04-12 08:42:00,34.7,34.4,29.55,ESE,112,4.7,-999.0,99,-99.99,,,0.09,Acu-Link.com,2013-04-12 12:42:00,
2013-04-12 08:57:00,35.1,34.8,29.55,SE,135,4.7,-999.0,99,-99.99,,,0.09,Acu-Link.com,2013-04-12 12:57:00,
2013-04-12 09:12:00,36.1,35.9,29.53,SE,135,4.3,-999.0,99,-99.99,,,0.11,Acu-Link.com,2013-04-12 13:12:00,
2013-04-12 09:27:00,37.2,37.0,29.53,ESE,112,4.7,-999.0,99,-99.99,,,0.12,Acu-Link.com,2013-04-12 13:27:00,
2013-04-12 09:42:00,37.9,37.7,29.52,ESE,112,5.1,-999.0,99,-99.99,,,0.12,Acu-Link.com,2013-04-12 13:42:00,
2013-04-12 09:58:00,38.8,38.6,29.52,ESE,112,5.1,-999.0,99,-99.99,,,0.12,Acu-Link.com,2013-04-12 13:58:00,
2013-04-12 10:13:00,39.6,39.3,29.51,ESE,112,6.3,-999.0,99,-99.99,,,0.12,Acu-Link.com,2013-04-12 14:13:00,
2013-04-12 10:28:00,40.3,40.0,29.50,SE,135,4.7,-999.0,99,-99.99,,,0.12,Acu-Link.com,2013-04-12 14:28:00,
2013-04-12 10:43:00,40.8,40.6,29.50,SE,135,4.7,-999.0,99,-99.99,,,0.12,Acu-Link.com,2013-04-12 14:43:00,
2013-04-12 10:58:00,43.7,43.4,29.50,ESE,112,4.7,-999.0,99,-99.99,,,0.13,Acu-Link.com,2013-04-12 14:58:00,
2013-04-12 11:14:00,45.0,44.7,29.49,SSE,157,8.3,-999.0,99,-99.99,,,0.13,Acu-Link.com,2013-04-12 15:14:00,
2013-04-12 11:29:00,45.5,45.2,29.50,SSE,157,7.8,-999.0,99,-99.99,,,0.13,Acu-Link.com,2013-04-12 15:29:00,
2013-04-12 11:44:00,46.8,45.1,29.50,SE,135,6.3,-999.0,94,-99.99,,,0.13,Acu-Link.com,2013-04-12 15:44:00,
2013-04-12 11:59:00,48.4,45.9,29.50,SE,135,8.9,-999.0,91,-99.99,,,0.13,Acu-Link.com,2013-04-12 15:59:00,
2013-04-12 12:15:00,48.7,45.6,29.50,ESE,112,7.4,-999.0,89,-99.99,,,0.13,Acu-Link.com,2013-04-12 16:15:00,
2013-04-12 12:30:00,48.9,45.5,29.49,SSE,157,9.4,-999.0,88,-99.99,,,0.13,Acu-Link.com,2013-04-12 16:30:00,
2013-04-12 12:45:00,49.3,46.2,29.49,SE,135,7.8,-999.0,89,-99.99,,,0.13,Acu-Link.com,2013-04-12 16:45:00,
2013-04-12 13:00:00,48.7,46.5,29.50,South,180,4.7,-999.0,92,-99.99,,,0.13,Acu-Link.com,2013-04-12 17:00:00,
2013-04-12 13:15:00,49.3,46.5,29.50,SE,135,4.3,-999.0,90,-99.99,,,0.13,Acu-Link.com,2013-04-12 17:15:00,
2013-04-12 13:30:00,50.7,47.0,29.50,SE,135,6.3,-999.0,87,-99.99,,,0.13,Acu-Link.com,2013-04-12 17:30:00,
2013-04-12 13:46:00,51.4,47.4,29.50,SSE,157,5.1,-999.0,86,-99.99,,,0.13,Acu-Link.com,2013-04-12 17:46:00,
2013-04-12 14:16:00,50.9,48.1,29.53,SSW,202,3.8,-999.0,90,-99.99,,,0.13,Acu-Link.com,2013-04-12 18:16:00,
2013-04-12 15:32:00,43.9,40.6,29.58,WSW,247,13.0,-999.0,88,-99.99,,,0.14,Acu-Link.com,2013-04-12 19:32:00,
2013-04-12 15:47:00,45.5,40.3,29.58,SW,225,12.5,-999.0,82,-99.99,,,0.14,Acu-Link.com,2013-04-12 19:47:00,
2013-04-12 16:02:00,45.5,40.3,29.58,SSW,202,11.4,-999.0,82,-99.99,,,0.14,Acu-Link.com,2013-04-12 20:02:00,
2013-04-12 16:18:00,45.7,39.9,29.59,West,270,17.7,-999.0,80,-99.99,,,0.14,Acu-Link.com,2013-04-12 20:18:00,
2013-04-12 16:33:00,45.1,40.0,29.60,WSW,247,13.4,-999.0,82,-99.99,,,0.14,Acu-Link.com,2013-04-12 20:33:00,
2013-04-12 16:48:00,45.5,39.7,29.60,West,270,7.4,-999.0,80,-99.99,,,0.14,Acu-Link.com,2013-04-12 20:48:00,
2013-04-12 17:03:00,44.6,38.8,29.62,WSW,247,11.4,-999.0,80,-99.99,,,0.14,Acu-Link.com,2013-04-12 21:03:00,
2013-04-12 17:19:00,42.6,38.1,29.63,SW,225,13.0,-999.0,84,-99.99,,,0.14,Acu-Link.com,2013-04-12 21:19:00,
2013-04-12 17:34:00,41.2,37.3,29.65,WSW,247,14.5,-999.0,86,-99.99,,,0.14,Acu-Link.com,2013-04-12 21:34:00,
2013-04-12 17:49:00,40.8,37.3,29.65,West,270,9.8,-999.0,87,-99.99,,,0.14,Acu-Link.com,2013-04-12 21:49:00,
2013-04-12 18:04:00,40.5,36.9,29.67,SW,225,6.3,-999.0,87,-99.99,,,0.14,Acu-Link.com,2013-04-12 22:04:00,
2013-04-12 18:19:00,39.9,36.7,29.67,SW,225,7.4,-999.0,88,-99.99,,,0.14,Acu-Link.com,2013-04-12 22:19:00,
2013-04-12 18:35:00,39.7,36.8,29.68,SSW,202,5.1,-999.0,89,-99.99,,,0.14,Acu-Link.com,2013-04-12 22:35:00,
2013-04-12 18:50:00,39.0,36.1,29.69,WSW,247,8.3,-999.0,89,-99.99,,,0.14,Acu-Link.com,2013-04-12 22:50:00,
2013-04-12 19:05:00,38.7,35.7,29.69,West,270,10.3,-999.0,89,-99.99,,,0.14,Acu-Link.com,2013-04-12 23:05:00,
2013-04-12 19:20:00,37.9,35.0,29.70,West,270,8.3,-999.0,89,-99.99,,,0.14,Acu-Link.com,2013-04-12 23:20:00,
2013-04-12 19:35:00,37.2,34.8,29.70,West,270,11.4,-999.0,91,-99.99,,,0.14,Acu-Link.com,2013-04-12 23:35:00,
2013-04-12 19:51:00,37.0,34.9,29.71,West,270,8.3,-999.0,92,-99.99,,,0.14,Acu-Link.com,2013-04-12 23:51:00,
2013-04-12 20:21:00,36.5,33.6,29.72,WSW,247,7.8,-999.0,89,-99.99,,,0.15,Acu-Link.com,2013-04-13 00:21:00,
2013-04-12 20:36:00,36.0,33.3,29.73,West,270,14.1,-999.0,90,-99.99,,,0.15,Acu-Link.com,2013-04-13 00:36:00,
2013-04-12 20:52:00,35.8,32.3,29.73,NNW,337,7.8,-999.0,87,-99.99,,,0.15,Acu-Link.com,2013-04-13 00:52:00,
2013-04-12 21:07:00,35.8,32.3,29.73,SW,225,9.4,-999.0,87,-99.99,,,0.15,Acu-Link.com,2013-04-13 01:07:00,
2013-04-12 21:22:00,35.8,32.3,29.73,West,270,10.3,-999.0,87,-99.99,,,0.15,Acu-Link.com,2013-04-13 01:22:00,
2013-04-12 21:52:00,36.0,32.2,29.74,WSW,247,9.4,-999.0,86,-99.99,,,0.15,Acu-Link.com,2013-04-13 01:52:00,
2013-04-12 22:08:00,36.1,31.8,29.75,West,270,9.4,-999.0,84,-99.99,,,0.15,Acu-Link.com,2013-04-13 02:08:00,
2013-04-12 22:23:00,36.1,31.8,29.74,WSW,247,16.1,-999.0,84,-99.99,,,0.15,Acu-Link.com,2013-04-13 02:23:00,
2013-04-12 22:38:00,36.5,31.5,29.75,West,270,7.8,-999.0,82,-99.99,,,0.15,Acu-Link.com,2013-04-13 02:38:00,
2013-04-12 22:53:00,36.7,31.4,29.75,SW,225,6.7,-999.0,81,-99.99,,,0.15,Acu-Link.com,2013-04-13 02:53:00,
2013-04-12 23:08:00,36.9,31.6,29.75,SW,225,9.8,-999.0,81,-99.99,,,0.15,Acu-Link.com,2013-04-13 03:08:00,
2013-04-12 23:24:00,36.9,31.6,29.75,West,270,7.8,-999.0,81,-99.99,,,0.15,Acu-Link.com,2013-04-13 03:24:00,
2013-04-12 23:39:00,37.0,31.8,29.74,SW,225,7.4,-999.0,81,-99.99,,,0.15,Acu-Link.com,2013-04-13 03:39:00,
2013-04-12 23:54:00,37.0,31.5,29.74,SW,225,9.8,-999.0,80,-99.99,,,0.15,Acu-Link.com,2013-04-13 03:54:00,